STARLINK-34405, 64704

Orbit data source: Space-Track

STARLINK-34405, 64704 is a payload satellite owned by SpaceX/Seattle (US) in LEO that was launched on Sat, 28 Jun 2025 UTC via an FALCON 9 launch vehicle from the Air Force Western Test Range (AFWTR). Payload-class satellites include a variety of spacecraft equipped with specific instruments for various scientific and technological missions. These include communications satellites like Starlink; space stations such as the ISS; scientific satellites like the Hubble; Earth observation satellites from companies like Planet Labs, Umbra, and HawkEye 360; GPS; miniature CubeSats for education and research; and military/defense satellites.

Loading next visibility...
Identifier
64704, 2025-142J
Orbit
LEO
Last TLE update
3 hours ago
Origin
Manufacturer
SpaceX/Seattle
Mission
Operational spacecraft
Bus & Motor
STARLINK V2MO, Unknown motor
Mass
575 kg wet, ~530 kg dry
Launch date (UTC)
2025-06-28 (3 weeks ago)
Launch vehicle
FALCON 9
Launch site
Air Force Western Test Range (AFWTR)
Object type
Payload
Rocket body
Debris
Shape & HBR
Unknown
Radar Cross Section
Large (>1 m²)

Expand to show TLE details & history

TLE from 3 hours ago
0 STARLINK-34405
1 64704U 25142J   25199.58335648 -.01253563  00000-0 -21705-1 0  9996
2 64704  70.0003 194.6528 0003843 273.1682 173.2345 15.53414117  4163
Epoch: 2025-07-18T14:00Z
TLE epoch observation values (Epoch: 2025-07-18T14:00:01.999Z)
Latitude
69.79642°
Longitude
127.59824°
Altitude
420.79 km
Speed
7.664 km/s
True Right ascension
18h 16m 57s
True Declination
69° 40' 45"
Sunlit
Object was in daylight at epoch
Visualization orbit readout
Latitude
3.92743°
Longitude
-133.80893°
Altitude
410.227 km
Speed
7.665 km/s
Apparent Right ascension
22h 15m 51s
Apparent Declination
-25° 05' 03"
Sunlit
Object is in daylight
Visualization observer readout
Local Sidereal Time
06:15:09
Azimuth
267.367° W
Elevation
-38.135°
Doppler factor
1
Orbital elements
Apogee altitude
407.271 km
Perigee altitude
402.058 km
Semi-major axis
6,782.802 km
Eccentricity
0.00038
Inclination
70.0003°
RAAN
194.6528°
Arg. of periapsis
273.1682°
True anomaly
173.23969°
Mean anomaly
173.2345°
Eccentric anomaly
173.23709°
Mean motion
3.88534 °/min
Orbital period
92.66 mins
BSTAR
-0.021705
Loading maneuver chart data...
Loading SW <> Apogee altitude chart data...
Loading historical data...
Loading historical data...
Loading historical data...
Loading historical data...
Loading historical data...
Loading historical data...
Loading historical data...
|